EST,Max TemperatureF,Mean TemperatureF,Min TemperatureF,Max Dew PointF,MeanDew PointF,Min DewpointF,Max Humidity, Mean Humidity, Min Humidity, Max Sea Level PressureIn, Mean Sea Level PressureIn, Min Sea Level PressureIn, Max VisibilityMiles, Mean VisibilityMiles, Min VisibilityMiles, Max Wind SpeedMPH, Mean Wind SpeedMPH, Max Gust SpeedMPH,PrecipitationIn, CloudCover, Events, WindDirDegrees
2013-12-1,42,35,28,39,31,19,93,83,64,30.41,30.17,30.01,10,4,0,9,3,,0.16,8,,23
2013-12-2,39,36,32,36,32,27,93,86,80,30.01,29.96,29.91,10,3,0,9,5,,0.00,7,,356
2013-12-3,48,40,33,34,30,27,87,74,50,29.96,29.90,29.85,10,6,0,12,7,,0.00,4,,330
2013-12-4,46,38,30,28,26,25,86,68,43,30.20,30.10,29.97,10,10,4,9,5,,0.00,1,,293
2013-12-5,53,42,32,52,40,27,94,85,75,30.20,30.10,29.95,10,4,0,8,2,16,0.00,8,,151
2013-12-6,55,45,35,54,44,30,94,86,75,30.13,29.99,29.89,10,7,2,13,6,21,0.49,8,,292
2013-12-7,39,32,26,30,24,16,87,70,52,30.45,30.25,30.07,10,9,3,15,8,21,0.18,5,,315
2013-12-8,30,24,17,18,14,10,80,61,47,30.59,30.52,30.45,10,10,10,7,4,,0.00,3,,359
2013-12-9,37,30,24,34,27,12,93,83,51,30.47,30.11,29.90,10,3,0,10,7,20,0.32,7,,25
2013-12-10,33,26,19,28,25,12,93,83,69,30.02,29.90,29.80,10,5,1,13,5,18,0.10,4,,261
2013-12-11,28,22,17,18,14,12,80,66,59,30.23,30.15,30.02,10,10,10,14,6,20,0.00,0,,241
2013-12-12,24,17,10,12,4,-2,73,56,36,30.27,30.18,30.06,10,10,10,15,9,22,0.00,0,,283
2013-12-13,28,22,15,14,8,1,74,55,43,30.34,30.11,30.00,10,10,10,20,8,29,0.00,3,,264
2013-12-14,26,18,10,23,5,-6,86,64,45,30.56,30.42,30.09,10,7,0,13,9,16,0.17,7,,27
2013-12-15,35,28,21,32,23,16,87,80,69,30.07,29.63,29.40,10,7,1,20,12,25,0.29,6,,321
2013-12-16,26,19,12,18,8,1,80,57,37,30.19,29.97,29.75,10,10,10,17,7,25,0.00,2,,270
2013-12-17,19,12,5,16,7,-4,93,75,66,30.24,30.10,29.91,10,6,0,18,6,23,0.01,5,,10
2013-12-18,32,24,17,18,15,12,86,68,51,30.10,29.95,29.84,10,10,6,16,10,24,0.00,3,,300
2013-12-19,44,34,23,23,19,14,74,56,39,30.12,30.06,29.97,10,10,10,10,5,22,0.00,1,,227
2013-12-20,53,42,32,34,28,21,75,60,41,30.12,30.03,29.95,10,10,10,9,3,,0.00,1,,200
2013-12-21,57,50,42,48,41,32,87,75,63,30.01,29.95,29.90,10,10,9,9,5,,0.00,3,,204
2013-12-22,62,50,39,57,50,36,88,81,72,30.01,29.90,29.79,10,9,5,15,9,26,0.00,5,,216
2013-12-23,39,36,33,36,33,28,93,87,81,30.09,30.03,29.96,10,4,0,14,6,20,0.63,8,,8
2013-12-24,37,32,24,34,20,9,87,62,44,30.20,30.11,30.04,10,10,10,14,10,23,0.00,3,,327
2013-12-25,24,19,14,9,2,-2,63,49,36,30.52,30.42,30.20,10,10,10,20,9,29,0.00,0,,338
2013-12-26,33,25,17,28,18,7,87,72,58,30.46,30.25,30.08,10,10,1,12,4,18,0.00,5,,273
2013-12-27,33,28,23,19,16,12,74,61,44,30.29,30.24,30.20,10,10,10,16,6,24,0.00,2,,254
2013-12-28,46,34,23,27,21,16,74,61,37,30.23,30.13,30.02,10,10,10,12,5,23,0.00,1,,225
2013-12-29,,,,,,,,,,,,,,,,,,,0.00,,,-1
2013-12-30,37,35,33,32,26,16,87,67,48,29.91,29.88,29.84,10,10,10,17,8,28,0.00,5,,266
2013-12-31,,,,,,,,,,,,,,,,,,,,,,